CW7520 Weather Reports


time (UTC)temp
C
wind
direction
speed
KPH
gust
KPH
rain 1hr
cm
rain 24hr
cm
rain mn
cm
humidity
%
barometer
mb
20260505101804 15 0 0.0 0.0 0.00 0.00 0.00 66 1022.5
20260505100903 15 0 0.0 0.0 0.00 0.00 0.00 66 1022.4
20260505100008 15 0 0.0 0.0 0.00 0.00 0.00 67 1022.5
20260505095404 15 0 0.0 0.0 0.00 0.00 0.00 69 1022.4
20260505094508 15 0 0.0 0.0 0.00 0.00 0.00 69 1022.4
20260505093814 15 0 0.0 0.0 0.00 0.00 0.00 69 1022.4
20260505092708 15 0 0.0 0.0 0.00 0.00 0.00 68 1022.4
20260505091814 15 0 0.0 0.0 0.00 0.00 0.00 68 1022.4
20260505090908 15 0 0.0 0.0 0.00 0.00 0.00 68 1022.4
20260505090214 15 0 0.0 0.0 0.00 0.00 0.00 67 1022.4
20260505085403 15 0 0.0 0.0 0.00 0.00 0.00 67 1022.4
20260505084504 15 0 0.0 0.0 0.00 0.00 0.00 67 1022.3
20260505083604 15 0 0.0 0.0 0.00 0.00 0.00 67 1022.2
20260505082708 15 0 0.0 0.0 0.00 0.00 0.00 68 1022.1
20260505081803 15 0 0.0 0.0 0.00 0.00 0.00 67 1022.0
20260505080903 16 0 0.0 0.0 0.00 0.00 0.00 67 1021.9
20260505080008 16 0 0.0 0.0 0.00 0.00 0.00 67 1021.8
20260505075408 16 0 0.0 0.0 0.00 0.00 0.00 67 1021.7
20260505074508 16 0 0.0 0.0 0.00 0.00 0.00 66 1021.7
20260505073603 16 0 0.0 0.0 0.00 0.00 0.00 66 1021.6
20260505072703 16 0 0.0 0.0 0.00 0.00 0.00 66 1021.4
20260505071803 16 0 0.0 0.0 0.00 0.00 0.00 66 1021.4
20260505070908 16 0 0.0 0.0 0.00 0.00 0.00 66 1021.4
20260505070008 16 0 0.0 0.0 0.00 0.00 0.00 66 1021.3
20260505065419 16 0 0.0 0.0 0.00 0.00 0.00 66 1021.2
20260505064714 16 0 0.0 0.0 0.00 0.00 0.00 66 1021.1
20260505063823 16 0 0.0 0.0 0.00 0.00 0.00 65 1021.1
20260505062708 16 0 0.0 0.0 0.00 0.00 0.00 65 1021.0
20260505061803 16 0 0.0 0.0 0.00 0.00 0.00 65 1021.0
20260505060903 16 0 0.0 0.0 0.00 0.00 0.00 65 1020.9
20260505060218 16 0 0.0 0.0 0.00 0.00 0.00 64 1020.9
20260505055404 16 0 0.0 0.0 0.00 0.00 0.00 64 1020.8
20260505054504 16 0 0.0 0.0 0.00 0.00 0.00 64 1020.7
20260505053608 16 0 0.0 0.0 0.00 0.00 0.00 64 1020.6
20260505052708 17 0 0.0 0.0 0.00 0.00 0.00 63 1020.6
20260505051803 17 0 0.0 0.0 0.00 0.00 0.00 63 1020.4
20260505050904 17 0 0.0 0.0 0.00 0.00 0.00 63 1020.3
20260505050218 17 0 0.0 0.0 0.00 0.00 0.00 63 1020.3
20260505040904 16 0 0.0 0.0 0.00 0.00 0.00 62 1019.9
20260505040004 16 0 0.0 0.0 0.00 0.00 0.00 62 1019.9
20260505035408 16 0 0.0 0.0 0.00 0.00 0.00 62 1019.9
20260505034509 17 0 0.0 0.0 0.00 0.00 0.00 60 1019.9
20260505033814 17 0 0.0 0.0 0.00 0.00 0.00 60 1019.9
20260505032703 17 0 0.0 0.0 0.00 0.00 0.00 60 1019.9
20260505031808 17 0 0.0 0.0 0.00 0.00 0.00 59 1019.9
20260505031114 17 0 0.0 0.0 0.00 0.00 0.00 61 1019.9
20260505030008 16 0 0.0 0.0 0.00 0.00 0.00 60 1019.9
20260505025405 16 0 0.0 0.0 0.00 0.00 0.00 60 1020.0
20260505024508 16 0 0.0 0.0 0.00 0.00 0.00 60 1020.0
20260505023604 16 0 0.0 0.0 0.00 0.00 0.00 60 1020.1
20260505022704 16 0 0.0 0.0 0.00 0.00 0.00 62 1020.1
20260505021804 16 0 0.0 0.0 0.00 0.00 0.00 62 1020.2
20260505020908 16 0 0.0 0.0 0.00 0.00 0.00 63 1020.2
20260505020004 16 0 0.0 0.0 0.00 0.00 0.00 62 1020.3
20260505015403 16 0 0.0 0.0 0.00 0.00 0.00 61 1020.4
20260505014508 16 0 0.0 0.0 0.00 0.00 0.00 62 1020.4
20260505013604 17 0 0.0 0.0 0.00 0.00 0.00 60 1020.5
20260505012918 17 0 0.0 0.0 0.00 0.00 0.00 60 1020.5
20260505011804 16 0 0.0 0.0 0.00 0.00 0.00 64 1020.4
20260505010914 16 0 0.0 0.0 0.00 0.00 0.00 64 1020.4
20260505010004 16 0 0.0 0.0 0.00 0.00 0.00 64 1020.4
20260505005614 16 0 0.0 0.0 0.00 0.00 0.00 65 1020.4
20260505004508 16 0 0.0 0.0 0.00 0.00 0.00 67 1020.3
20260505003608 16 0 0.0 0.0 0.00 0.00 0.00 66 1020.2
20260505002704 16 0 0.0 0.0 0.00 0.00 0.00 67 1020.1
20260505001804 15 0 0.0 0.0 0.00 0.00 0.00 68 1020.0
20260505000908 15 0 0.0 0.0 0.00 0.00 0.00 68 1019.9
20260505000008 15 0 0.0 0.0 0.00 0.00 0.00 71 1019.9
20260504235409 15 0 0.0 0.0 0.00 0.00 0.00 73 1019.8
20260504234503 14 0 0.0 0.0 0.00 0.00 0.00 74 1019.9
20260504233825 14 0 0.0 0.0 0.00 0.00 0.00 75 1019.9
20260504232708 14 0 0.0 0.0 0.00 0.00 0.00 77 1019.9
20260504231808 13 0 0.0 0.0 0.00 0.00 0.00 79 1019.8
20260504230903 13 0 0.0 0.0 0.00 0.00 0.00 83 1019.7
20260504230008 13 0 0.0 0.0 0.00 0.00 0.00 85 1019.6
20260504225613 12 0 0.0 0.0 0.00 0.00 0.00 86 1019.6
20260504224508 12 0 0.0 0.0 0.00 0.00 0.00 87 1019.5
20260504223613 12 0 0.0 0.0 0.00 0.00 0.00 87 1019.4
20260504222913 12 0 0.0 0.0 0.00 0.00 0.00 87 1019.3
20260504221813 12 0 0.0 0.0 0.00 0.00 0.00 86 1019.1
20260504220908 12 0 0.0 0.0 0.00 0.00 0.00 86 1018.9
20260504220008 12 0 0.0 0.0 0.00 0.00 0.00 86 1018.8
20260504215404 12 0 0.0 0.0 0.00 0.00 0.00 86 1018.7
20260504214508 12 0 0.0 0.0 0.00 0.00 0.00 86 1018.5
20260504213603 12 0 0.0 0.0 0.00 0.00 0.00 85 1018.3
20260504212703 12 0 0.0 0.0 0.00 0.00 0.00 85 1018.1
20260504211804 12 0 0.0 0.0 0.00 0.00 0.00 85 1017.9
20260504210908 12 0 0.0 0.0 0.00 0.00 0.00 85 1017.8
20260504210008 12 0 0.0 0.0 0.00 0.00 0.00 85 1017.7
20260504205405 12 0 0.0 0.0 0.00 0.00 0.00 85 1017.7
20260504204504 12 0 0.0 0.0 0.00 0.00 0.00 85 1017.6
20260504203605 12 0 0.0 0.0 0.00 0.00 0.00 85 1017.4
20260504202703 12 0 0.0 0.0 0.00 0.00 0.00 85 1017.2
20260504201803 12 0 0.0 0.0 0.00 0.00 0.00 84 1017.0
20260504200905 12 0 0.0 0.0 0.00 0.00 0.00 84 1016.8
20260504200004 13 0 0.0 0.0 0.00 0.00 0.00 84 1016.7
20260504195404 13 0 0.0 0.0 0.00 0.00 0.00 83 1016.7
20260504194504 13 0 0.0 0.0 0.00 0.00 0.00 83 1016.7
20260504193605 13 0 0.0 0.0 0.00 0.00 0.00 82 1016.6
20260504192705 13 0 0.0 0.0 0.00 0.00 0.00 81 1016.6
20260504191805 13 0 0.0 0.0 0.00 0.00 0.00 80 1016.5
20260504190903 13 0 0.0 0.0 0.00 0.00 0.00 79 1016.3
20260504190008 13 0 0.0 0.0 0.00 0.00 0.00 79 1016.2
20260504185614 13 0 0.0 0.0 0.00 0.00 0.00 79 1016.1
20260504184503 13 0 0.0 0.0 0.00 0.00 0.00 79 1016.0
20260504183605 13 0 0.0 0.0 0.00 0.00 0.00 79 1015.9
20260504182914 13 0 0.0 0.0 0.00 0.00 0.00 79 1015.8
20260504181803 13 0 0.0 0.0 0.00 0.00 0.00 78 1015.5
20260504180905 13 0 0.0 0.0 0.00 0.00 0.00 78 1015.5
20260504180004 13 0 0.0 0.0 0.00 0.00 0.00 77 1015.4
20260504175405 13 0 0.0 0.0 0.00 0.00 0.00 77 1015.4
20260504174505 13 0 0.0 0.0 0.00 0.00 0.00 77 1015.3
20260504173604 13 0 0.0 0.0 0.00 0.00 0.00 77 1015.3
20260504172704 13 0 0.0 0.0 0.00 0.00 0.00 76 1015.3
20260504171803 13 0 0.0 0.0 0.00 0.00 0.00 76 1015.3
20260504170904 13 0 0.0 0.0 0.00 0.00 0.00 76 1015.2
20260504160219 13 0 0.0 0.0 0.00 0.00 0.00 79 1014.9
20260504150903 13 0 0.0 0.0 0.00 0.00 0.00 78 1014.6
20260504140904 14 0 0.0 0.0 0.00 0.00 0.00 77 1014.1